Terug naar catalogus

STARLINK-30320

ActiefCommunicatieVLEO
NORAD 57678·PAYLOAD·🇺🇸 United States

Gelanceerd Aug 22, 2023 vanaf Vandenberg Space Force Base

Loading…

Volgende Passages (komende 24 uur)

TLE

VersSource: CelesTrak SupGP

Epoch: Sep 15, 2026, 02:04 UTC

1 57678C 23124R   26258.08659722 -.00001406  00000+0 -41536-4 0  2580
2 57678  53.1589  30.8296 0001254  89.7284 318.8788 15.34385030    10

Volg STARLINK-30320 in realtime met AllMySat

Download on the App Store